Location: Peebles
(55.6412°N, 3.1714°W)
Time: 01:22:05
(UTC+01:00)

deb Agena D - Pass Details

Date: 18 September 2024
Orbit: 793 x 976 km, 99.8° (Epoch: 11 October)

Event Time Altitude Azimuth Distance (km) Brightness Sun altitude
Rises 04:02:23 0° 17° (NNE) 3,423 10.3 -22.5°
Reaches altitude 10° 04:04:43 10° 15° (NNE) 2,508 9.4 -22.2°
Maximum altitude 04:10:15 71° 293° (WNW) 942 6.3 -21.6°
Enters shadow 04:12:12 43° 223° (SW) 1,256 6.6 -21.4°
